TimeAKST,TemperatureF,Dew PointF,Humidity,Sea Level PressureIn,VisibilityMPH,Wind Direction,Wind SpeedMPH,Gust SpeedMPH,PrecipitationIn,Events,Conditions,WindDirDegrees,DateUTC
12:19 AM,37.0,30.0,76,29.10,7.0,ENE,21.9,32.2,0.00,Rain,Light Rain,70,2013-01-07 09:19:00
12:53 AM,37.9,30.0,73,29.10,8.0,East,20.7,33.4,0.01,Rain,Light Rain,80,2013-01-07 09:53:00
1:37 AM,37.0,32.0,82,29.09,4.0,East,16.1,35.7,0.02,Rain,Light Rain,100,2013-01-07 10:37:00
1:47 AM,35.6,32.0,87,29.10,1.8,ENE,15.0,29.9,0.05,Snow,Light Snow,60,2013-01-07 10:47:00
1:53 AM,36.0,32.0,86,29.10,2.0,East,20.7,32.2,0.06,Snow,Light Snow,100,2013-01-07 10:53:00
2:03 AM,37.0,32.0,82,29.09,9.0,East,19.6,39.1,0.00,Rain,Light Rain,90,2013-01-07 11:03:00
3:12 AM,37.0,30.9,79,29.09,7.0,East,24.2,43.7,0.00,Snow,Light Snow,90,2013-01-07 12:12:00
3:44 AM,36.0,30.9,82,29.09,2.5,ENE,16.1,34.5,0.02,Snow,Light Snow,70,2013-01-07 12:44:00
3:53 AM,35.1,32.0,89,29.11,1.8,East,10.4,20.7,0.05,Snow,Light Snow,90,2013-01-07 12:53:00
4:02 AM,35.1,32.0,89,29.09,2.0,East,18.4,28.8,0.02,Snow,Light Snow,100,2013-01-07 13:02:00
4:24 AM,36.0,30.9,82,29.09,3.0,ENE,20.7,44.9,0.05,Snow,Light Snow,70,2013-01-07 13:24:00
4:31 AM,36.0,32.0,86,29.08,3.0,ESE,18.4,44.9,0.05,Snow,Light Snow,110,2013-01-07 13:31:00
4:53 AM,35.1,32.0,89,29.09,2.5,ESE,12.7,27.6,0.08,Snow,Light Snow,110,2013-01-07 13:53:00
5:02 AM,35.1,32.0,89,29.10,2.0,ESE,12.7,25.3,0.01,Snow,Light Snow,110,2013-01-07 14:02:00
5:42 AM,36.0,32.0,86,29.09,3.0,ESE,12.7,27.6,0.08,Snow,Light Snow,120,2013-01-07 14:42:00
5:53 AM,35.1,32.0,89,29.09,3.0,ENE,16.1,31.1,0.09,Snow,Light Snow,70,2013-01-07 14:53:00
6:01 AM,34.0,32.0,92,29.09,2.0,North,-9999.0,-,0.01,Snow,Light Snow,0,2013-01-07 15:01:00
6:13 AM,34.0,32.0,92,29.10,1.5,SSE,10.4,20.7,0.04,Snow,Light Snow,150,2013-01-07 15:13:00
6:25 AM,34.0,32.0,92,29.10,1.2,East,16.1,21.9,0.07,Snow,Light Snow,90,2013-01-07 15:25:00
6:48 AM,33.8,32.0,93,29.10,0.8,SE,10.4,20.7,0.13,Snow,Light Snow,130,2013-01-07 15:48:00
6:53 AM,33.1,32.0,96,29.10,1.0,SE,10.4,21.9,0.14,Snow,Light Snow,130,2013-01-07 15:53:00
7:32 AM,35.1,30.9,85,29.11,2.0,East,13.8,29.9,0.06,Snow,Light Snow,100,2013-01-07 16:32:00
7:53 AM,35.1,30.9,85,29.12,2.0,ESE,12.7,34.5,0.08,Snow,Light Snow,110,2013-01-07 16:53:00
8:02 AM,34.0,32.0,92,29.13,1.0,ESE,11.5,28.8,0.03,Snow,Light Snow,110,2013-01-07 17:02:00
8:04 AM,33.1,32.0,96,29.13,0.8,East,10.4,28.8,0.03,Snow,Light Snow,100,2013-01-07 17:04:00
8:13 AM,32.0,32.0,100,29.13,1.0,SSE,9.2,23.0,0.06,Snow,Light Snow,160,2013-01-07 17:13:00
8:38 AM,33.1,32.0,96,29.13,2.0,SE,12.7,21.9,0.09,Snow,Light Snow,140,2013-01-07 17:38:00
8:48 AM,33.8,32.0,93,29.13,4.0,SE,10.4,20.7,0.09,Snow,Light Snow,140,2013-01-07 17:48:00
8:53 AM,34.0,32.0,92,29.13,4.0,ESE,12.7,25.3,0.09,Snow,Light Snow,120,2013-01-07 17:53:00
9:01 AM,34.0,32.0,92,29.13,2.0,SE,13.8,26.5,0.01,Snow,Light Snow,130,2013-01-07 18:01:00
9:12 AM,34.0,32.0,92,29.14,1.8,SE,9.2,20.7,0.02,Snow,Light Snow,130,2013-01-07 18:12:00
9:37 AM,34.0,32.0,92,29.15,2.0,SE,9.2,21.9,0.05,Snow,Light Snow,130,2013-01-07 18:37:00
9:44 AM,33.1,32.0,96,29.16,1.2,SE,11.5,20.7,0.06,Snow,Light Snow,130,2013-01-07 18:44:00
10:13 AM,35.1,30.9,85,29.16,2.5,SE,10.4,25.3,0.01,Snow,Light Snow,130,2013-01-07 19:13:00
10:28 AM,35.1,30.9,85,29.16,3.0,East,16.1,26.5,0.02,Snow,Light Snow,100,2013-01-07 19:28:00
10:53 AM,34.0,30.9,89,29.17,3.0,SE,12.7,25.3,0.03,Snow,Light Snow,130,2013-01-07 19:53:00
11:02 AM,34.0,32.0,92,29.17,2.5,ESE,12.7,24.2,0.00,Snow,Light Snow,120,2013-01-07 20:02:00
11:13 AM,34.0,32.0,92,29.17,1.8,SE,11.5,25.3,0.01,Snow,Light Snow,130,2013-01-07 20:13:00
11:35 AM,35.1,32.0,89,29.16,3.0,East,10.4,23.0,0.03,Snow,Light Snow,100,2013-01-07 20:35:00
11:53 AM,34.0,30.9,89,29.18,1.8,East,18.4,27.6,0.03,Snow,Light Snow,100,2013-01-07 20:53:00
12:03 PM,35.1,30.9,85,29.17,2.0,ESE,11.5,27.6,0.01,Snow,Light Snow,110,2013-01-07 21:03:00
12:16 PM,33.1,32.0,96,29.18,1.2,SE,9.2,29.9,0.01,Snow,Light Snow,140,2013-01-07 21:16:00
12:29 PM,34.0,32.0,92,29.18,2.0,SE,12.7,23.0,0.02,Snow,Light Snow,140,2013-01-07 21:29:00
12:38 PM,34.0,30.9,89,29.17,5.0,SSE,12.7,25.3,0.02,Snow,Light Snow,150,2013-01-07 21:38:00
12:53 PM,34.0,32.0,92,29.18,3.0,SSE,12.7,23.0,0.02,Snow,Light Snow,150,2013-01-07 21:53:00
1:04 PM,34.0,32.0,92,29.18,2.0,SSE,15.0,25.3,0.01,Snow,Light Snow,160,2013-01-07 22:04:00
1:12 PM,33.1,32.0,96,29.19,1.0,SSE,9.2,23.0,0.01,Snow,Light Snow,160,2013-01-07 22:12:00
1:20 PM,33.1,32.0,96,29.19,0.8,SSE,9.2,19.6,0.03,Snow,Light Snow,150,2013-01-07 22:20:00
1:28 PM,32.0,32.0,100,29.19,0.5,SSE,8.1,24.2,0.04,Fog-Snow,Snow,150,2013-01-07 22:28:00
1:46 PM,33.1,32.0,96,29.19,1.2,SE,9.2,19.6,0.06,Snow,Light Snow,140,2013-01-07 22:46:00
1:53 PM,33.1,32.0,96,29.20,1.5,SE,9.2,18.4,0.06,Snow,Light Snow,140,2013-01-07 22:53:00
1:58 PM,34.0,33.1,96,29.20,2.5,Variable,6.9,18.4,0.00,Snow,Light Snow,0,2013-01-07 22:58:00
2:05 PM,35.1,32.0,89,29.20,4.0,SE,10.4,20.7,0.00,Snow,Light Snow,140,2013-01-07 23:05:00
2:14 PM,34.0,32.0,92,29.20,1.8,SSE,10.4,21.9,0.01,Snow,Light Snow,160,2013-01-07 23:14:00
2:31 PM,33.1,32.0,96,29.20,2.5,SSE,11.5,20.7,0.02,Snow,Light Snow,150,2013-01-07 23:31:00
2:44 PM,33.1,32.0,96,29.21,1.5,SSE,11.5,23.0,0.03,Snow,Light Snow,150,2013-01-07 23:44:00
2:53 PM,34.0,32.0,92,29.21,1.0,SSE,9.2,21.9,0.04,Snow,Light Snow,150,2013-01-07 23:53:00
3:03 PM,33.1,32.0,96,29.21,1.5,South,11.5,20.7,0.00,Snow,Light Snow,170,2013-01-08 00:03:00
3:07 PM,34.0,33.1,96,29.21,2.0,SE,10.4,20.7,0.01,Snow,Light Snow,140,2013-01-08 00:07:00
3:17 PM,33.1,32.0,96,29.21,3.0,SE,9.2,24.2,0.01,Snow,Light Snow,140,2013-01-08 00:17:00
3:35 PM,33.1,32.0,96,29.22,2.0,SE,16.1,23.0,0.02,Snow,Light Snow,140,2013-01-08 00:35:00
3:53 PM,35.1,33.1,92,29.23,3.0,SE,10.4,21.9,0.03,Snow,Light Snow,130,2013-01-08 00:53:00
4:53 PM,34.0,32.0,92,29.24,3.0,SE,10.4,19.6,0.03,Snow,Light Snow,130,2013-01-08 01:53:00
5:53 PM,35.1,33.1,92,29.26,4.0,ESE,9.2,19.6,0.03,Snow,Light Snow,120,2013-01-08 02:53:00
6:53 PM,34.0,32.0,92,29.27,8.0,SE,11.5,-,0.01,Snow,Light Snow,140,2013-01-08 03:53:00
7:53 PM,36.0,30.9,82,29.29,9.0,SSE,11.5,18.4,0.00,Snow,Light Snow,150,2013-01-08 04:53:00
8:25 PM,35.1,32.0,89,29.30,0.8,North,-9999.0,-,0.00,,Overcast,0,2013-01-08 05:25:00
8:32 PM,35.1,30.9,85,29.30,-9999.0,Variable,6.9,-,0.00,,Overcast,0,2013-01-08 05:32:00
8:53 PM,34.0,32.0,92,29.31,-9999.0,Variable,5.8,-,0.00,Snow,Light Snow,0,2013-01-08 05:53:00
9:27 PM,34.0,33.1,96,29.32,-9999.0,Variable,5.8,-,0.00,,Overcast,0,2013-01-08 06:27:00
9:53 PM,34.0,33.1,96,29.33,-9999.0,Variable,4.6,-,0.00,,Overcast,0,2013-01-08 06:53:00
10:14 PM,34.0,33.1,96,29.33,-9999.0,Variable,3.5,-,0.01,Snow,Light Snow,0,2013-01-08 07:14:00
10:40 PM,34.0,33.1,96,29.34,-9999.0,Variable,4.6,-,0.01,Rain,Light Rain,0,2013-01-08 07:40:00
10:53 PM,34.0,33.1,96,29.35,-9999.0,Variable,3.5,-,0.01,,Overcast,0,2013-01-08 07:53:00
11:53 PM,33.1,33.1,100,29.37,-9999.0,East,6.9,-,0.00,Snow,Light Snow,90,2013-01-08 08:53:00